TimeCET,TemperatureF,Dew PointF,Humidity,Sea Level PressureIn,VisibilityMPH,Wind Direction,Wind SpeedMPH,Gust SpeedMPH,PrecipitationIn,Events,Conditions,WindDirDegrees,DateUTC
1:00 AM,30,24,70,29.68,,NNE,17.9,,,,,20,2013-01-25 00:00:00
5:15 AM,28.4,21.2,74,29.68,-9999.0,NNE,15.0,-,N/A,,Clear,30,2013-01-25 04:15:00
5:45 AM,28.4,21.2,74,29.68,-9999.0,North,16.1,-,N/A,,Clear,360,2013-01-25 04:45:00
6:00 AM,-9999,-9999,N/A,-9999,6.2,North,15.0,-,N/A,,Overcast,360,2013-01-25 05:00:00
6:15 AM,28.4,21.2,74,29.71,-9999.0,NNE,17.3,28.8,N/A,,Clear,20,2013-01-25 05:15:00
6:45 AM,28.4,21.2,74,29.71,-9999.0,North,17.3,-,N/A,,Clear,10,2013-01-25 05:45:00
7:00 AM,28,21,66,29.73,9,North,15.7,,,,Partly Cloudy,10,2013-01-25 06:00:00
7:15 AM,28.4,21.2,74,29.71,6.2,North,16.1,-,N/A,,Overcast,10,2013-01-25 06:15:00
7:45 AM,28.4,21.2,74,29.74,3.7,North,16.1,-,N/A,,Overcast,10,2013-01-25 06:45:00
7:53 AM,28.4,21.2,74,29.74,-9999.0,North,16.1,29.9,N/A,,Unknown,10,2013-01-25 06:53:00
8:15 AM,28.4,21.2,74,29.74,4.3,NNE,17.3,-,N/A,,Overcast,20,2013-01-25 07:15:00
8:45 AM,28.4,21.2,74,29.74,5.0,North,19.6,31.1,N/A,,Overcast,10,2013-01-25 07:45:00
9:00 AM,-9999,-9999,N/A,-9999,3.1,NNE,18.4,32.2,N/A,,Overcast,20,2013-01-25 08:00:00
9:15 AM,28.4,21.2,74,29.74,5.0,North,19.6,-,N/A,,Overcast,10,2013-01-25 08:15:00
9:45 AM,28.4,21.2,74,29.77,5.0,North,18.4,-,N/A,,Overcast,10,2013-01-25 08:45:00
10:15 AM,28.4,21.2,74,29.77,5.0,North,16.1,-,N/A,,Overcast,10,2013-01-25 09:15:00
10:45 AM,28.4,21.2,74,29.77,5.0,NNE,21.9,33.4,N/A,,Overcast,20,2013-01-25 09:45:00
11:15 AM,28.4,21.2,74,29.77,6.2,NNE,23.0,34.5,N/A,,Overcast,20,2013-01-25 10:15:00
11:45 AM,28.4,21.2,74,29.77,6.2,North,18.4,-,N/A,,Overcast,10,2013-01-25 10:45:00
12:00 PM,-9999,-9999,N/A,-9999,3.1,NNE,18.4,32.2,N/A,,Overcast,20,2013-01-25 11:00:00
12:15 PM,30.2,21.2,69,29.77,6.2,NNE,20.7,-,N/A,,Overcast,20,2013-01-25 11:15:00
12:45 PM,30.2,21.2,69,29.77,6.2,NNE,20.7,-,N/A,,Overcast,20,2013-01-25 11:45:00
1:00 PM,30,21,60,29.80,6,NNE,20.1,,,,Partly Cloudy,20,2013-01-25 12:00:00
1:15 PM,30.2,21.2,69,29.80,6.2,NNE,19.6,-,N/A,,Overcast,20,2013-01-25 12:15:00
1:45 PM,28.4,21.2,74,29.80,6.2,North,20.7,-,N/A,,Overcast,10,2013-01-25 12:45:00
2:15 PM,28.4,21.2,74,29.80,6.2,North,18.4,-,N/A,,Mostly Cloudy,10,2013-01-25 13:15:00
2:45 PM,28.4,21.2,74,29.80,-9999.0,NNE,16.1,-,N/A,,Clear,20,2013-01-25 13:45:00
3:15 PM,28.4,21.2,74,29.83,-9999.0,NNE,20.7,-,N/A,,Clear,20,2013-01-25 14:15:00
3:45 PM,28.4,21.2,74,29.83,6.2,NNE,17.3,-,N/A,,Mostly Cloudy,20,2013-01-25 14:45:00
4:15 PM,28.4,21.2,74,29.83,6.2,NNE,20.7,-,N/A,,Mostly Cloudy,30,2013-01-25 15:15:00
4:45 PM,28.4,21.2,74,29.86,6.2,NNE,19.6,-,N/A,,Mostly Cloudy,20,2013-01-25 15:45:00
6:00 PM,-9999,-9999,N/A,-9999,-9999.0,North,-9999.0,-,N/A,,Unknown,0,2013-01-25 17:00:00
7:00 PM,27,19,63,29.91,,NNE,15.7,,,,,20,2013-01-25 18:00:00